RSQA2 Weather Reports


Display with metric or nautical units.
time (UTC)temp
F
wind
direction
speed
MPH
gust
MPH
rain 1hr
in
rain 24hr
in
rain mn
in
humidity
%
barometer
mb
20260503011317 51 286 2.0 7.0 0.00 0.00 0.00 49 1009.1
20260503005810 52 257 2.0 8.0 0.00 0.00 0.00 47 1008.7
20260503004311 52 209 7.0 12.0 0.00 0.00 0.00 42 1008.3
20260503002826 52 227 5.0 11.0 0.00 0.00 0.00 42 1008.2
20260503001323 53 188 3.0 8.0 0.00 0.00 0.00 42 1008.1
20260502234323 53 232 3.0 11.0 0.00 0.00 0.00 39 1007.7
20260502232819 53 272 5.0 10.0 0.00 0.00 0.00 39 1007.5
20260502231315 53 223 4.0 10.0 0.00 0.00 0.00 39 1007.4
20260502225815 54 176 8.0 11.0 0.00 0.00 0.00 37 1007.3
20260502224311 53 223 7.0 12.0 0.00 0.00 0.00 39 1007.2
20260502222827 53 210 5.0 11.0 0.00 0.00 0.00 38 1007.1
20260502212826 53 224 2.0 8.0 0.00 0.00 0.00 45 1006.5
20260502211328 53 144 3.0 7.0 0.00 0.00 0.00 46 1006.4
20260502205822 51 241 2.0 6.0 0.00 0.00 0.00 48 1006.4
20260502204317 52 218 2.0 7.0 0.00 0.00 0.00 50 1006.3
20260502201320 49 193 2.0 6.0 0.00 0.00 0.00 52 1006.1
20260502195815 49 209 3.0 9.0 0.00 0.00 0.00 51 1005.9
20260502194314 47 273 2.0 4.0 0.00 0.00 0.00 55 1005.7
20260502185813 46 199 0.0 5.0 0.00 0.00 0.00 56 1005.1
20260502184314 46 169 3.0 5.0 0.00 0.00 0.00 57 1004.8
20260502181310 45 219 0.0 5.0 0.00 0.00 0.00 61 1004.5
20260502164317 41 119 0.0 0.0 0.00 0.00 0.00 76 1003.2
20260502161317 40 279 0.0 2.0 0.00 0.00 0.00 78 1002.7
20260502122827 41 279 1.0 3.0 0.00 0.00 0.00 70 999.6
20260502121322 42 279 1.0 4.0 0.00 0.00 0.00 67 999.2
20260502115816 43 279 2.0 6.0 0.00 0.00 0.00 64 999.1
20260502111316 43 249 1.0 4.0 0.00 0.00 0.00 62 997.6
20260502104314 41 276 1.0 3.0 0.00 0.00 0.00 71 997.0
20260502102829 39 276 0.0 4.0 0.00 0.00 0.00 77 996.5
20260502101325 39 349 0.0 1.0 0.00 0.00 0.00 77 996.1
20260502091319 41 349 0.0 1.0 0.00 0.00 0.00 72 994.9
20260502071322 41 146 0.0 0.0 0.00 0.00 0.00 72 993.3
20260502064319 41 146 0.0 0.0 0.00 0.00 0.00 71 993.4
20260502061315 42 146 0.0 0.0 0.00 0.00 0.00 69 993.4
20260502054313 43 146 0.0 0.0 0.00 0.00 0.00 65 993.2
20260502052829 44 146 0.0 0.0 0.00 0.00 0.00 66 993.2
20260502051324 44 146 0.0 0.0 0.00 0.00 0.00 66 993.1
20260502044322 45 146 0.0 0.0 0.00 0.00 0.00 62 993.3
20260502041322 48 146 0.0 3.0 0.00 0.00 0.00 53 993.5
20260502034314 48 109 0.0 2.0 0.00 0.00 0.00 52 993.7
20260502032809 49 109 0.0 2.0 0.00 0.00 0.00 50 993.9
20260502031310 50 109 2.0 4.0 0.00 0.00 0.00 48 994.1
20260502025824 50 195 0.0 4.0 0.00 0.00 0.00 47 994.4
20260502022825 51 138 0.0 3.0 0.00 0.00 0.00 45 994.1
20260502021321 51 182 1.0 4.0 0.00 0.00 0.00 44 994.1
20260502014315 51 146 2.0 5.0 0.00 0.00 0.00 43 994.3